Location: Unspecified
(0.0000°N, 0.0000°E)
Time: 09:59:37
(UTC+02:00)

Daily predictions for brighter satellites

Satellite Brightness Start Highest point End
(mag) Time Altitude Azimuth Time Altitude Azimuth Time Altitude Azimuth
Ariane H10-3 4.0 19:43:05 10° W 19:47:30 78° S 20:23:21 10° E
Ariane H10-3 4.0 19:43:06 10° W 19:47:30 78° S 20:23:21 10° E
Ariane H10-3 4.0 19:43:05 10° W 19:47:30 78° S 20:23:22 10° E
ARIANE 44L R/B 4.2 20:04:59 10° WSW 20:08:50 51° SSE 20:30:32 10° E
CZ-3A R/B 1.5 20:15:29 10° WSW 20:17:48 69° NNW 20:21:29 10° ENE
Cosmos 2278 Rocket 3.2 20:12:30 10° NNW 20:17:55 50° WSW 20:23:23 10° S
Maqsat-B 3.8 20:14:46 10° WNW 20:18:06 41° NNE 20:24:44 10° E
Milstar 3 3.8 20:03:44 10° WNW 20:18:32 78° NNE 20:26:27 10° ESE
ARIANE 5 DEB (SYLDA) 3.8 20:15:53 10° W 20:19:33 69° N 20:26:43 10° E
Cosmos 2151 Rocket 4.0 20:17:15 10° NNE 20:21:32 43° E 20:25:49 10° SSE
Cosmos 1818 3.6 20:17:37 10° SSW 20:23:01 86° ESE 20:28:27 10° NNE
ARIANE 44LP R/B 3.4 20:20:25 10° W 20:23:10 70° S 20:33:57 10° E
Cosmos 292 Rocket 4.3 20:19:16 10° SSE 20:23:42 36° ESE 20:28:07 10° NE
ARIANE 5 R/B 3.2 20:22:07 10° W 20:26:12 60° N 20:30:57 10° E
Cosmos 858 Rocket 4.5 20:21:21 10° N 20:26:31 80° ENE 20:31:44 10° SSE
Cosmos 2150 Rocket 4.0 20:28:45 10° N 20:34:05 79° ENE 20:39:22 10° SSE
Nadezhda 2 Rocket 4.5 20:31:01 10° N 20:37:13 86° E 20:43:21 10° S
Spelda 2.7 20:35:32 10° W 20:38:50 43° N 20:41:19 10° ENE
Cosmos 1300 Rocket 4.1 20:39:57 10° NNE 20:44:04 38° E 20:48:11 10° SSE
YAOGAN 1 4.4 20:40:50 10° SSW 20:44:41 31° WSW 20:48:31 10° NW
Cosmos 1378 Rocket 4.3 20:43:25 10° SSW 20:47:47 57° W 20:52:08 10° N
Cosmos 1975 Rocket 3.0 20:43:45 10° S 20:48:12 66° E 20:52:38 10° NNE
Cosmos 1633 2.9 20:44:41 10° NNW 20:48:16 65° W 20:51:51 10° S
Hubble Space Telescope 0.9 20:44:33 10° WSW 20:48:41 75° NNW 20:52:49 10° NE
SPOT 3 Rocket 4.5 20:44:27 10° S 20:49:24 49° WSW 20:54:21 10° NNW
Cosmos 1602 3.7 20:46:47 10° N 20:50:43 85° E 20:54:40 10° S
Cosmos 1461 4.5 20:48:03 10° NNE 20:51:25 21° ENE 20:52:53 18° E
Cosmos 2369 Rocket 4.1 20:51:38 10° ENE 20:52:59 11° ENE 20:53:04 11° ENE
Cosmos 1680 Rocket 4.5 20:49:28 10° SSE 20:53:40 24° ESE 20:57:49 10° NE
CZ-3A R/B 4.1 20:26:08 10° SSW 20:56:31 89° WNW 21:03:12 10° NNE
NOAA 12 4.0 20:51:33 10° SSE 20:56:45 68° ENE 21:01:55 10° N
Cosmos 1932 4.5 20:51:17 10° NNW 20:57:37 68° ENE 21:03:03 14° SSE
Cosmos 1745 Rocket 4.3 20:52:44 10° NNE 20:58:36 43° E 21:04:14 11° SSE
Ariane H10+ 1.1 20:58:12 10° WSW 20:59:44 26° S 20:59:44 26° S
Cosmos 1607 4.0 20:53:35 10° NNW 20:59:59 70° ENE 21:05:27 14° SSE
Okean 1 Rocket 3.4 20:56:24 10° NNE 21:00:34 42° E 21:03:12 20° SSE
COSMOS 2406 3.3 20:58:09 10° S 21:03:46 54° ESE 21:09:21 10° NNE
Meteor 1-18 Rocket 4.3 21:03:14 10° S 21:09:07 85° E 21:15:02 10° N
USA 238 DEB 4.3 21:03:09 10° N 21:09:42 39° ENE 21:12:55 26° ESE
USA 238 4.3 21:03:16 10° N 21:09:48 39° ENE 21:12:58 26° ESE
GPS 2-15 Rocket1 3.4 21:09:33 10° SW 21:14:16 50° SSE 21:15:38 37° ESE
Okean 1 3.1 21:12:06 12° S 21:15:44 68° E 21:19:40 10° N
ARIANE 5 DEB (SYLDA) 4.0 21:12:38 10° W 21:16:23 78° S 21:23:51 24° E
Cosmos 1125 Rocket 3.8 21:11:56 10° N 21:16:52 43° ENE 21:18:14 36° ESE
FREGAT/IRIS 2.7 21:17:38 43° S 21:18:28 72° W 21:21:28 10° NNW
ALOS 2.1 21:16:53 20° SSE 21:20:07 83° ENE 21:24:46 10° N
Tiangong 1 2.8 21:18:05 10° W 21:20:21 21° SW 21:20:44 20° SSW
Milstar 3 Cent rocket 3.9 21:12:59 10° SW 21:20:47 54° SE 21:37:31 10° ENE
BREEZE-M DEB 4.2 21:18:56 10° SW 21:21:43 85° NW 21:24:04 21° NE
Iridium 4 Rocket 4.2 21:19:25 10° NNE 21:24:33 38° E 21:24:50 37° E
ATLAS 3B R/B 2.5 21:26:15 10° NNW 21:32:41 88° WSW 21:35:51 33° SSE
FENGYUN 3A 3.7 21:30:08 21° S 21:33:51 78° WSW 21:39:11 10° NNW
ARIANE 5 DEB (SYLDA) 3.9 21:27:14 10° W 21:34:55 49° N 21:35:27 44° NNE
Delta 142 4.0 21:31:35 10° SW 21:34:34 42° SSW 21:34:34 42° SSW
Resurs 01 Rocket 2.4 21:38:36 37° NE 21:38:36 37° NE 21:41:40 10° N
Cosmos 923 Rocket 4.4 21:34:07 10° SSW 21:39:24 65° WNW 21:44:40 10° N
Cosmos 1536 4.2 21:37:37 10° NNW 21:41:17 37° W 21:43:28 20° SSW
deb Centaur AC-2 4.1 21:39:22 10° NW 21:43:16 64° N 21:43:16 64° N
Helios 1B rocket 3.6 21:58:06 10° N 22:01:35 41° WNW 22:01:35 41° WNW
NOSS 3-2 (A) 4.2 21:59:31 10° N 22:07:17 55° ENE 22:07:17 55° ENE
Cosmos 1709 Rocket 4.1 22:09:28 10° N 22:14:49 68° NNW 22:14:49 68° NNW
Maqsat-H 3.6 22:21:23 10° WNW 22:26:59 77° NNE 22:29:48 57° E
Maqsat-H 3.6 22:21:23 10° WNW 22:27:00 77° NNE 22:29:47 58° E
Maqsat-H 3.6 22:21:23 10° WNW 22:27:00 77° NNE 22:29:48 57° E
Maqsat-H 3.6 22:21:23 10° WNW 22:27:00 77° NNE 22:29:49 57° E
Hubble Space Telescope 3.9 22:28:04 10° NW 22:29:08 12° NW 22:29:08 12° NW
Cosmos 2369 Rocket 3.5 22:31:16 10° NNW 22:34:54 36° WNW 22:34:54 36° WNW
Cosmos 1943 Rocket 4.4 22:43:12 10° NNW 22:44:31 18° NNW 22:44:31 18° NNW
